Home > Weather > Fairfax > Past weeks

Flag for U.S.A. Weather for the Past 2 Weeks in Fairfax, Virginia, U.S.A.

Now
44 °F

Partly sunny.


Feels Like: 39 °F
Forecast: 25 / 43 °F
Wind: 10 mph from South

Location: Washington-Dulles International Airport

Current Time: Feb 6, 2016 at 2:26:26 PM

Latest Report: Feb 6, 2016 at 1:52 PM


Visibility: 10 mi

Pressure: 30.33 "Hg

Humidity: 41%

Dew point: 22 °F

Location of FairfaxLocation

Historic Weather in Fairfax — Graph

°F

Fairfax Temperature Yesterday

Maximum temperature yesterday: 40 °F (at 12:52 PM)
Minimum temperature yesterday: 27 °F (at 11:52 PM)
Average temperature yesterday: 36 °F

High & Low Weather Summary for the Past Weeks

 TemperatureHumidityPressure
High58 °F (Jan 31, 2:52 PM)100% (Feb 3, 10:52 AM)30.46 "Hg (Feb 3, 10:52 AM)
Low5 °F (Jan 25, 4:52 AM)34% (Jan 30, 2:52 PM)29.57 "Hg (Jan 29, 4:52 AM)
Average35 °F69%30.04 "Hg
* Reported Jan 22 12:52 PM — Feb 6 12:52 PM, Fairfax, Weather by CustomWeather, © 2016

Note: Actual official high and low records may vary slightly from our data, if they occured in-between our weather recording intervals... More about our weather records

Advertising

Fairfax Weather History for the Previous 24 Hours

 ConditionsComfort  
Time TempWeatherWind HumidityBarometerVisibility
12:52 PM
Sat, Feb 6
41 °FPartly sunny.13 mph43%30.37 "Hg10 mi
11:52 AM38 °FPartly sunny.14 mph48%30.42 "Hg10 mi
10:52 AM38 °FPartly sunny.12 mph51%30.45 "Hg10 mi
9:52 AM36 °FPartly sunny.No wind54%30.46 "Hg10 mi
8:52 AM29 °FPartly sunny.No wind75%30.46 "Hg10 mi
7:52 AM24 °FPartly sunny.No wind84%30.46 "Hg10 mi
6:52 AM23 °FPassing clouds.No wind81%30.45 "Hg10 mi
5:52 AM23 °FPassing clouds.No wind85%30.44 "Hg10 mi
4:52 AM24 °FPassing clouds.No wind81%30.42 "Hg10 mi
3:52 AM23 °FPassing clouds.No wind85%30.42 "Hg10 mi
2:52 AM24 °FPassing clouds.3 mph81%30.42 "Hg10 mi
1:52 AM25 °FPassing clouds.No wind78%30.41 "Hg10 mi
12:52 AM25 °FPassing clouds.No wind78%30.41 "Hg10 mi
11:52 PM
Fri, Feb 5
27 °FPassing clouds.No wind72%30.40 "Hg10 mi
10:52 PM31 °FPassing clouds.No wind59%30.41 "Hg10 mi
9:52 PM32 °FPassing clouds.5 mph54%30.39 "Hg10 mi
8:52 PM31 °FPassing clouds.8 mph59%30.39 "Hg10 mi
7:52 PM32 °FClear.5 mph56%30.38 "Hg10 mi
6:52 PM36 °FClear.5 mph44%30.37 "Hg10 mi
5:52 PM36 °FPassing clouds.9 mph44%30.36 "Hg10 mi
4:52 PM39 °FPassing clouds.14 mph41%30.34 "Hg10 mi
3:52 PM40 °FPassing clouds.17 mph45%30.32 "Hg10 mi
2:52 PM40 °FPassing clouds.16 mph43%30.30 "Hg10 mi
Weather by CustomWeather, © 2016

See weather overviewHow to use our weather pages